RH
15 14 14 13 13 13 12 11 10 9 8 8 7 6 5 5 5 5 5 4 4 4 4 5 6 6 6 6 6 5 5 4 4 4 4 4 5 5 6 7 6 7 7 7 8 10 14 19 27 32 32 31 30 29 28 28 30 30 28 28 28 25 22 20 22 25 27 29 31 32 34 36 37 38 41 40 41 44 44 43 41 38 36 40 41 40 40 40
14 14 14 13 13 13 12 11 10 10 9 9 8 7 7 7 7 6 5 4 4 4 4 5 5 6 6 6 6 5 4 4 4 4 4 4 4 5 5 6 6 6 6 6 7 10 14 20 26 28 28 28 27 25 24 26 28 26 25 27 26 22 20 19 21 25 28 30 30 32 33 34 35 36 36 36 38 41 44 45 44 42 41 43 45 44 41 41
13 14 14 13 13 13 12 11 11 10 10 10 9 9 9 8 7 6 4 4 4 4 4 5 5 6 6 6 6 5 5 4 4 3 3 4 4 5 5 6 6 6 6 6 8 10 15 21 24 23 23 25 24 22 22 22 24 23 22 24 25 23 21 21 22 25 28 30 31 31 31 33 34 34 33 32 34 37 40 43 43 43 43 45 47 47 44 42
13 13 13 13 13 13 13 11 11 11 11 11 11 10 10 9 7 6 5 4 4 4 5 5 5 6 6 6 6 6 5 4 4 3 4 4 4 4 5 6 6 6 5 6 8 11 16 21 21 20 20 23 22 19 19 20 21 22 21 22 26 24 21 23 24 26 29 29 30 30 31 34 36 34 31 31 32 33 37 39 39 42 44 44 47 46 43 43
14 13 13 13 13 13 13 12 12 12 12 12 12 11 10 8 8 7 5 4 4 5 5 6 6 6 6 6 6 6 4 4 3 3 4 3 4 4 5 6 5 5 5 6 9 12 18 20 19 18 18 21 21 17 17 18 20 20 20 22 26 24 20 23 25 27 28 27 28 31 33 36 35 32 31 32 32 32 34 36 37 42 44 45 47 45 43 44
15 13 13 13 13 14 14 13 13 13 12 12 12 11 10 8 8 8 5 4 4 5 5 5 5 5 5 6 6 6 4 4 4 5 5 3 4 4 5 5 5 5 5 7 10 14 19 19 17 17 17 20 21 18 17 18 18 20 22 25 26 23 20 23 25 26 27 27 30 33 34 34 33 32 33 34 35 35 35 35 36 41 44 45 45 43 42 44
15 14 13 13 13 14 14 14 14 13 13 12 12 11 9 8 8 8 5 5 4 5 5 5 5 5 5 5 5 5 4 4 5 6 6 4 3 4 4 5 5 4 5 7 11 16 19 17 16 16 16 19 19 18 17 17 18 20 24 27 26 23 22 24 26 28 28 30 32 33 33 32 33 33 36 38 39 38 35 34 37 41 43 43 44 40 39 42
16 14 13 13 14 14 15 15 14 13 12 13 12 11 9 8 8 8 5 4 4 4 5 5 5 5 5 5 4 5 4 5 6 6 6 5 3 4 4 5 4 4 6 8 12 17 18 17 16 14 15 18 18 17 16 17 19 21 26 25 23 24 25 26 27 28 29 31 33 33 31 32 35 35 36 39 39 39 36 35 37 40 42 42 44 42 38 40
17 15 14 14 14 14 15 15 14 13 12 13 12 10 9 8 7 6 4 4 5 4 3 3 4 4 5 5 5 5 4 5 6 6 6 5 4 4 4 4 4 5 7 10 13 18 18 16 15 14 15 18 17 16 16 17 19 22 25 23 22 26 29 29 29 30 32 33 33 32 30 32 35 33 32 35 37 39 37 36 37 38 41 40 42 43 40 39
17 15 14 14 15 14 15 15 14 13 12 13 12 10 9 8 5 5 4 4 4 3 3 3 3 3 3 4 4 4 4 5 6 6 6 5 4 4 4 4 5 6 8 10 14 18 18 15 15 14 15 17 16 16 16 17 21 25 25 24 24 28 31 30 31 32 34 35 35 33 31 32 32 27 27 31 35 39 38 38 39 39 41 41 40 41 40 39
18 16 15 15 15 15 15 15 13 13 12 13 12 10 9 7 5 5 5 4 4 3 2 2 3 3 3 4 4 4 5 6 6 6 5 5 4 4 4 4 5 7 7 10 15 18 17 15 14 14 15 16 15 15 16 18 23 25 24 25 27 30 33 33 33 34 34 35 36 34 32 33 29 26 27 30 34 38 41 40 41 42 42 42 41 43 43 42
17 16 16 16 15 15 15 14 14 13 12 12 13 11 10 8 7 5 5 6 6 4 2 2 3 2 3 3 4 6 7 7 7 6 5 4 4 4 4 5 6 7 7 9 14 16 16 15 14 14 14 15 16 15 17 20 24 25 23 26 30 32 34 36 35 34 34 34 36 36 32 33 32 29 30 32 34 36 39 39 39 41 42 42 43 44 45 44
16 15 16 17 16 15 14 14 13 13 12 12 13 11 9 10 9 6 5 7 7 6 5 5 5 4 4 4 5 7 8 8 8 7 6 5 5 5 4 5 6 6 7 9 13 15 16 14 13 14 13 15 15 15 17 20 22 24 24 26 31 35 36 37 35 33 34 33 37 39 34 34 35 33 32 32 33 33 35 35 36 38 40 43 44 43 42 42
14 14 16 17 17 15 14 13 13 13 12 12 13 12 10 10 11 8 6 7 9 8 7 6 7 7 7 6 6 8 9 8 8 7 7 6 5 5 5 6 6 6 8 10 13 14 14 14 13 13 13 14 14 15 17 18 19 23 26 28 30 35 38 37 34 34 35 34 37 38 33 33 35 35 33 31 30 29 29 30 32 35 38 43 43 41 39 38
13 13 15 17 17 15 14 13 14 13 12 12 13 12 10 10 11 10 8 8 9 10 9 9 9 9 9 8 7 9 9 9 8 7 7 6 5 5 6 6 6 7 9 11 12 13 14 13 13 13 13 13 13 14 16 17 18 20 28 33 31 34 38 36 35 35 36 36 39 39 35 35 36 37 37 34 31 28 27 27 29 33 37 40 40 38 37 36
12 13 14 17 17 16 14 13 14 14 12 12 13 12 11 10 11 11 10 9 9 10 11 11 10 9 10 8 7 8 9 8 8 7 6 6 5 5 6 6 7 8 9 10 12 13 13 13 13 13 13 13 13 14 15 19 22 19 23 34 33 34 37 36 35 36 37 37 39 40 38 38 38 38 39 36 33 31 28 27 28 32 36 38 38 37 36 35
12 12 14 16 17 16 14 13 14 14 12 13 13 12 11 10 10 12 12 11 11 11 11 12 10 10 10 8 7 7 8 8 8 7 6 6 5 5 6 8 8 8 9 10 11 12 13 13 13 13 13 13 14 14 15 18 24 21 20 29 31 31 35 36 36 36 37 38 39 41 42 42 41 40 41 38 35 32 29 28 28 30 34 36 36 35 35 33
12 12 14 16 17 16 14 14 14 14 13 13 13 12 11 10 10 13 14 14 14 13 12 13 12 11 10 8 8 8 7 7 8 7 6 6 6 6 8 9 8 8 9 10 10 11 12 12 12 13 13 14 14 14 15 17 20 20 19 24 28 29 32 34 34 35 37 39 40 42 45 47 44 42 41 39 37 34 31 30 29 29 31 32 33 33 33 31
12 12 13 16 17 16 14 14 15 15 13 13 13 12 11 10 10 13 14 14 14 13 12 13 12 12 9 7 8 8 7 7 8 7 7 7 7 7 8 8 8 8 8 9 10 11 12 12 13 13 14 15 15 16 17 17 17 17 18 21 24 26 29 31 32 34 36 38 40 40 45 48 45 42 41 39 38 37 35 34 30 29 29 30 31 32 31 31
12 12 13 15 17 16 14 14 15 15 14 13 14 12 12 12 11 12 13 13 13 12 12 12 13 12 11 9 8 8 8 7 7 7 7 7 7 7 7 8 8 8 7 8 8 9 11 12 13 13 14 16 18 18 18 18 18 18 18 19 21 23 26 30 32 33 33 37 42 42 43 45 43 41 40 39 38 38 38 36 33 31 30 30 31 31 31 31
13 12 12 15 17 16 14 15 15 15 15 14 14 12 12 13 12 12 12 11 11 12 12 12 12 12 11 10 8 7 8 8 7 7 7 8 7 7 7 7 7 7 8 8 9 10 12 14 14 14 15 17 19 20 19 19 19 19 19 18 20 22 25 28 31 33 33 37 44 44 43 45 42 40 40 39 37 37 38 38 35 33 32 32 33 32 31 30
13 12 12 14 16 16 15 15 16 16 15 15 14 14 13 13 13 13 14 12 11 11 12 12 12 11 10 9 8 7 8 8 7 7 7 8 8 7 7 6 6 7 9 10 11 13 15 15 14 15 17 18 20 20 19 20 19 19 20 19 19 21 24 27 28 32 33 36 44 44 43 46 43 40 41 39 37 37 39 39 38 36 35 34 34 34 32 31
14 13 12 13 16 16 15 16 16 16 17 16 15 14 14 13 13 14 14 13 13 11 11 11 11 10 9 8 7 7 8 7 6 7 7 8 8 7 7 8 8 9 10 12 13 16 17 16 15 17 18 18 18 18 18 19 18 18 19 18 20 22 23 24 27 32 34 37 42 43 42 44 43 41 40 38 38 40 41 41 39 39 37 36 36 35 34 33
14 13 13 13 15 16 16 17 17 17 17 17 15 15 14 13 14 15 15 14 14 12 10 10 11 10 9 8 8 7 7 7 6 7 7 8 7 7 8 9 10 11 13 14 15 17 17 16 16 17 17 18 17 17 17 19 19 19 19 18 21 23 22 24 27 32 36 39 40 40 43 44 43 42 39 38 39 40 41 41 39 40 39 37 37 35 35 35
14 14 13 13 14 16 16 17 18 18 18 18 16 16 15 14 14 15 15 14 14 12 10 11 11 10 9 9 9 8 7 7 7 7 7 8 8 8 10 11 12 13 15 15 16 16 16 16 17 17 17 17 17 17 18 18 20 20 20 19 21 23 24 25 27 29 35 41 41 38 40 42 41 40 38 37 38 39 41 41 39 40 41 40 39 38 37 37
14 14 14 13 14 16 17 17 18 17 17 18 18 17 15 15 15 15 15 14 11 10 10 10 11 9 9 10 9 9 9 8 8 8 9 10 10 10 12 13 13 15 15 15 15 15 16 16 17 16 17 17 17 17 18 18 20 20 21 21 21 23 25 26 26 28 34 39 40 37 34 37 38 37 35 35 37 37 40 42 40 41 41 42 43 40 38 38
15 15 14 14 13 16 18 18 17 16 17 18 19 18 16 16 16 16 17 15 10 9 9 10 10 9 9 10 10 10 10 9 9 11 12 12 12 13 13 14 14 14 15 15 15 15 16 16 17 16 17 17 16 17 18 19 19 20 22 23 24 24 26 27 25 27 32 35 39 37 32 34 36 34 34 35 37 37 38 40 41 42 42 42 44 41 38 39
16 15 15 15 14 15 18 19 18 17 17 19 19 19 18 18 18 17 19 17 11 9 9 9 10 9 10 10 10 9 9 9 11 13 14 13 14 13 13 14 14 14 15 15 14 16 16 17 17 17 17 18 17 18 19 19 19 20 22 24 26 27 28 27 26 30 32 33 38 38 34 33 32 30 33 36 37 39 39 39 40 43 43 43 44 42 39 39
17 16 15 15 15 16 18 19 19 18 18 19 19 19 19 19 19 18 19 18 13 10 9 10 10 10 10 11 10 9 9 10 12 14 14 14 14 13 13 14 13 14 15 14 15 16 16 18 18 18 18 18 19 19 19 19 18 19 22 22 24 26 27 27 28 31 33 31 32 35 34 32 30 27 31 35 37 36 35 36 38 42 43 44 44 42 39 38
17 16 16 16 16 17 19 20 20 19 19 18 18 19 19 20 20 17 18 18 15 11 9 10 10 10 11 10 10 10 9 11 13 14 14 14 13 13 13 13 13 14 14 14 15 16 17 18 19 19 19 19 20 20 20 20 19 20 21 22 23 25 27 29 31 32 34 30 28 31 32 31 28 25 26 32 33 31 30 33 37 41 44 45 45 44 42 39
17 17 16 16 17 17 20 22 20 19 19 18 19 21 21 21 20 19 18 17 14 12 10 10 11 10 11 10 10 10 10 12 13 13 14 13 13 13 13 13 13 14 15 14 14 15 17 18 18 19 19 19 19 20 20 20 20 20 20 21 24 28 30 32 33 33 33 30 27 28 30 33 30 23 22 27 29 30 31 32 36 39 42 45 46 45 44 40
17 16 16 16 17 18 20 22 20 19 19 19 21 22 23 23 22 19 17 17 17 14 11 11 11 11 11 11 11 11 11 12 13 13 14 13 13 13 13 13 14 14 15 15 14 15 16 17 18 19 20 19 18 18 19 19 19 20 21 23 25 29 30 30 31 32 29 28 26 26 29 35 31 22 20 24 27 31 33 33 35 38 40 44 44 43 44 41
17 16 16 16 17 18 20 21 21 19 19 20 23 24 24 26 24 18 16 18 19 17 13 12 12 12 12 11 11 12 12 13 13 13 14 14 14 14 13 14 14 14 15 16 15 15 16 17 17 18 19 18 16 17 19 21 21 20 21 23 24 25 26 26 28 28 26 25 24 24 29 32 27 21 20 22 24 29 34 35 36 38 40 41 40 40 41 40
16 16 16 16 17 18 19 20 21 21 19 22 25 26 25 26 23 19 19 21 22 19 15 13 12 12 13 12 12 13 12 13 14 14 14 14 14 13 13 13 13 14 16 17 16 16 17 18 16 16 17 17 18 19 22 24 24 23 22 22 22 22 22 23 24 24 23 26 26 26 28 27 23 23 25 24 25 28 32 35 37 38 40 40 39 40 41 40
16 16 17 17 17 18 19 20 22 22 21 23 25 27 27 25 23 21 23 24 23 21 18 15 13 13 13 13 13 13 12 14 15 14 14 14 13 13 12 12 13 14 15 16 17 17 17 17 17 17 18 19 22 25 26 25 24 25 25 23 23 23 23 25 26 25 25 26 28 29 26 23 21 23 25 25 26 28 29 33 35 37 41 42 42 44 43 40
16 16 17 18 18 19 19 20 23 23 24 26 26 26 26 24 22 23 26 25 23 23 21 17 14 14 13 13 14 13 12 13 14 14 14 14 13 13 12 13 13 13 14 15 17 17 16 16 17 18 19 21 24 27 27 25 25 26 26 24 25 25 28 31 31 31 29 25 26 28 25 22 21 20 24 26 26 27 29 30 32 35 40 41 41 44 44 40
17 16 18 21 21 21 20 20 22 25 27 27 27 26 25 24 22 24 27 27 25 24 23 20 16 15 14 13 13 14 13 13 14 14 14 14 13 13 13 13 13 13 14 15 17 17 16 16 17 19 21 23 25 25 25 25 25 26 25 25 27 28 30 31 32 33 30 26 27 27 24 23 22 19 23 26 25 26 28 29 31 34 37 39 40 42 41 39
18 16 19 23 23 24 24 21 21 27 30 29 28 29 27 24 23 23 25 27 26 26 26 23 20 16 16 14 14 14 14 14 14 14 14 14 14 13 13 13 13 14 14 14 16 17 16 17 19 20 22 25 26 25 25 26 26 25 24 25 26 28 30 31 31 30 28 27 27 26 25 25 22 19 20 22 23 25 27 28 30 32 34 36 38 40 39 38
18 18 21 24 24 25 24 21 23 28 31 30 29 29 26 24 24 24 25 27 27 28 28 26 23 19 17 16 15 15 15 15 14 15 15 15 15 14 13 13 14 14 14 14 15 16 17 18 20 21 22 24 26 26 26 27 27 25 25 26 26 28 29 30 28 26 25 28 28 25 25 24 21 21 20 20 22 24 26 28 29 31 34 35 37 39 39 36
18 19 23 25 24 24 23 24 26 29 30 31 31 29 25 24 23 23 24 26 26 29 29 27 25 22 20 18 17 16 17 16 15 15 16 16 15 15 15 15 16 16 15 15 14 16 18 18 20 23 23 24 25 25 25 25 26 26 26 27 28 29 29 27 27 26 25 28 29 25 23 20 19 24 24 21 23 25 27 28 28 30 33 36 38 40 39 36
19 19 23 25 24 24 26 26 27 28 29 32 31 29 27 25 23 23 24 25 26 28 30 29 28 26 24 23 21 19 18 18 17 16 16 15 15 16 17 17 17 17 16 15 14 15 17 18 20 23 24 24 24 25 26 25 25 26 27 28 28 28 29 29 29 29 26 27 28 26 22 17 19 27 27 24 24 25 26 27 28 31 32 35 38 38 38 36
19 19 21 25 26 27 27 26 27 27 28 30 31 29 28 27 25 24 23 24 25 26 29 30 30 30 28 27 26 24 23 21 20 18 17 16 16 16 18 19 19 19 17 16 15 16 19 21 22 23 24 25 25 27 28 28 27 28 28 27 28 29 30 29 30 30 28 27 27 26 24 19 20 27 28 26 26 25 25 26 27 29 31 34 35 37 38 37
20 20 20 24 26 28 29 28 27 27 25 27 30 29 27 26 26 25 23 22 24 25 27 29 30 31 31 30 29 28 26 24 23 21 19 19 18 17 19 21 21 21 19 18 17 19 22 24 25 25 26 25 25 27 29 29 29 29 28 28 29 30 31 30 32 32 29 28 28 28 25 19 21 28 28 28 29 27 27 28 28 28 29 30 32 34 36 37
22 21 20 24 26 29 32 31 28 27 26 26 28 28 27 25 25 26 24 22 23 24 26 27 28 30 32 31 30 30 27 25 24 23 21 22 21 19 21 23 23 22 21 20 20 20 21 24 25 26 28 28 26 28 28 28 27 27 28 31 32 33 33 33 34 33 30 29 29 27 24 19 23 28 28 28 30 28 27 29 29 29 29 29 30 30 32 34
24 23 22 25 26 27 32 33 30 29 29 28 28 28 28 27 25 26 25 24 24 24 26 28 28 30 33 33 31 31 30 27 24 23 23 22 22 21 23 26 25 22 23 23 22 22 24 27 26 25 27 28 28 28 27 26 28 29 31 32 33 34 33 33 34 32 30 31 30 26 23 21 23 26 24 25 28 28 29 30 30 31 31 32 32 31 32 34
28 27 26 26 26 28 32 35 34 33 33 32 29 28 29 28 27 27 27 27 26 25 26 27 28 31 33 34 33 33 32 29 27 26 25 23 22 22 25 29 29 27 28 26 24 27 30 30 29 28 27 26 27 29 29 28 30 31 32 32 33 34 33 33 34 32 32 33 30 28 28 25 22 23 23 24 27 29 31 32 32 33 34 34 34 34 34 36
30 31 32 30 29 30 33 35 36 36 34 33 31 29 29 29 29 29 28 28 28 27 27 27 29 31 34 35 35 34 34 33 31 29 27 26 25 24 25 30 32 32 33 29 26 29 32 29 30 32 31 29 29 31 31 31 30 31 32 32 32 33 32 31 32 34 35 34 29 31 35 29 21 22 23 25 28 30 33 34 34 35 34 35 35 35 36 36
31 32 35 34 32 32 34 36 38 37 35 34 33 31 29 28 29 31 31 30 30 30 29 28 29 32 36 36 36 36 37 36 34 32 31 30 29 26 24 27 29 30 31 29 28 32 31 29 30 31 30 31 31 32 32 31 31 32 32 32 32 34 33 32 34 36 36 33 31 36 38 30 22 21 22 23 26 28 31 32 33 34 34 34 35 36 37 37
33 33 34 34 34 35 36 39 39 37 36 37 36 33 31 29 29 31 33 33 32 32 32 31 31 34 37 39 39 40 41 37 35 36 35 33 31 28 26 26 27 27 28 29 31 33 31 31 33 31 30 31 32 32 32 31 32 33 33 33 33 34 34 34 36 37 37 35 35 37 37 30 22 22 23 22 23 25 26 26 28 32 34 34 36 37 37 37
34 36 36 35 36 38 38 38 38 36 37 38 37 34 32 30 29 31 34 34 33 34 34 34 35 36 37 40 42 42 42 40 38 39 38 35 33 31 30 28 27 27 28 29 32 32 31 34 36 33 31 32 32 33 33 33 33 34 34 34 34 35 36 35 36 38 38 38 38 38 36 28 22 23 24 22 22 24 25 25 27 32 35 36 36 37 38 37
36 35 37 37 36 37 39 39 38 37 37 38 38 35 35 33 31 31 33 33 32 34 35 36 37 36 35 38 41 42 42 42 41 40 38 36 34 33 32 30 29 29 30 31 31 32 34 37 38 35 34 34 35 36 36 35 35 35 35 36 35 35 35 35 37 38 37 38 39 37 30 23 21 25 26 24 25 26 25 26 29 32 35 36 35 35 36 37
36 34 35 37 34 34 38 38 37 37 37 38 39 37 36 35 33 33 33 32 31 32 35 36 36 35 34 34 37 39 41 43 42 40 40 38 36 34 33 32 31 31 33 34 33 35 37 37 38 38 37 37 39 39 37 36 37 37 36 35 36 36 36 36 37 37 36 36 34 30 25 22 24 27 25 23 24 26 26 26 29 31 32 33 33 33 34 35